Theta_e
303 304 304 303 303 303 303 303 303 303 303 304 304 304 303 303 298 302 300 301 299 297 293 291 292 292 295 298 299 302 306 304 300 301 301 297 297 297 296 297 298 301 300 300 298
302 305 303 303 303 303 303 303 303 303 303 303 303 303 303 302 295 298 299 301 299 295 292 292 293 293 291 294 294 303 304 300 300 296 296 295 295 294 293 293 293 294 295 296 296
302 302 303 303 303 303 303 302 302 303 302 301 301 302 302 301 295 298 297 296 296 293 291 292 293 293 293 294 294 293 298 294 294 294 294 293 291 291 292 291 291 292 292 292 293
302 301 302 302 302 302 302 303 303 302 301 300 301 302 301 296 293 296 296 294 294 292 292 292 292 292 292 292 293 293 293 293 294 292 292 291 291 291 291 291 291 291 291 292 292
303 302 302 301 302 302 302 303 302 300 299 299 300 299 296 292 291 294 292 291 291 291 292 292 292 292 291 292 292 292 291 291 291 291 291 291 291 291 291 291 291 292 292 292 292
302 302 301 301 301 302 302 302 301 298 298 299 299 299 294 291 293 293 291 291 291 291 291 291 291 292 291 292 291 291 291 291 291 291 291 291 291 291 292 292 292 292 292 292 292
301 301 301 301 302 302 302 301 300 297 298 298 298 298 294 291 293 293 292 292 291 291 291 291 292 292 291 291 291 291 291 291 291 291 291 291 292 291 292 292 292 292 292 292 292
301 301 301 301 301 301 300 298 297 296 296 296 297 297 294 293 293 293 292 291 291 291 291 291 291 291 291 291 291 291 291 292 291 291 291 291 292 292 292 292 292 292 292 292 293
301 301 300 301 301 301 296 295 293 291 292 294 294 294 291 292 292 291 291 291 291 291 291 291 291 291 291 292 291 291 292 291 292 291 291 291 292 292 292 292 292 293 293 293 294
302 301 301 301 301 300 296 293 292 292 292 293 291 290 291 290 290 291 291 290 290 290 290 291 291 291 290 290 288 289 291 291 291 291 291 291 291 291 292 292 292 292 293 292 293
301 301 301 301 301 297 294 291 289 290 291 290 290 290 289 291 291 291 290 290 290 291 290 290 291 290 290 291 291 290 291 291 291 291 292 292 292 291 292 291 291 291 291 290 291
301 301 301 301 301 295 293 291 290 289 291 291 290 290 291 291 291 289 290 290 290 289 290 288 289 289 289 290 291 291 292 292 292 292 291 292 292 292 291 290 290 290 289 289 289
301 301 301 302 300 297 293 292 292 292 290 290 290 290 291 290 289 288 289 290 290 289 289 286 287 289 289 290 291 292 293 293 293 292 291 291 291 290 290 290 289 289 288 288 288
301 302 302 302 299 297 293 293 292 290 284 293 290 291 290 289 289 289 289 290 290 288 288 286 288 290 291 291 291 292 291 292 292 291 290 290 291 290 290 291 289 288 288 287 287
301 302 302 302 299 297 294 293 292 288 293 291 289 289 289 289 289 289 289 289 290 289 285 286 287 289 289 290 291 289 290 290 290 290 290 288 290 289 289 290 288 288 287 286 286
301 301 301 301 299 298 295 292 291 290 290 292 289 289 290 289 289 289 289 288 288 286 287 288 289 287 288 291 291 289 286 288 279 280 284 285 290 290 289 289 287 286 286 285 284
299 298 298 300 299 298 294 289 293 290 293 294 291 289 290 291 291 289 286 286 285 288 280 287 288 290 291 283 280 280 280 281 281 279 285 287 290 290 288 287 286 285 285 284 284
299 297 297 298 299 296 291 290 290 291 292 291 290 290 291 291 290 284 283 284 283 279 280 282 285 287 290 288 284 280 282 289 290 284 289 289 288 289 287 287 287 285 284 283 283
297 297 298 297 296 294 291 289 292 292 292 291 293 289 289 290 288 286 282 283 283 281 287 284 284 288 289 290 286 279 286 287 291 272 282 284 287 288 289 288 286 284 284 282 282
297 296 295 295 293 291 292 294 291 292 291 289 291 293 292 292 289 288 285 286 283 284 287 287 284 288 289 287 286 285 288 287 288 287 284 284 287 287 285 285 285 282 283 282 281
295 295 294 293 291 292 293 286 289 291 291 290 293 294 292 293 291 289 288 288 287 288 288 284 287 283 284 282 283 281 283 290 293 287 286 287 287 280 281 282 283 282 282 281 281
294 296 292 291 293 291 286 285 291 293 292 292 292 291 292 292 289 290 290 287 288 290 290 287 287 278 282 281 282 282 282 290 292 289 287 290 289 279 281 283 284 282 281 281 280
288 293 291 292 295 283 289 290 293 292 292 292 291 292 292 286 291 290 291 289 289 291 290 286 285 280 280 283 282 281 281 286 290 289 288 289 287 282 280 283 282 281 280 279 280
292 291 288 291 291 291 291 291 288 291 292 291 292 292 289 289 291 286 289 289 289 290 292 290 286 281 286 286 282 280 281 284 287 287 282 286 287 288 287 283 282 280 280 279 279
291 289 286 287 287 288 290 292 292 289 289 291 288 288 291 290 289 289 290 289 289 290 291 292 290 284 287 286 283 283 282 283 284 285 288 287 283 287 286 282 281 280 279 279 278
286 288 282 290 289 290 290 289 289 290 289 288 289 289 287 287 287 288 289 289 290 286 285 288 290 286 282 282 280 275 280 280 279 284 286 286 287 282 281 280 281 279 278 278 277
290 290 290 288 288 288 288 288 288 288 288 289 288 287 285 287 287 288 288 288 287 286 286 288 288 284 286 280 278 281 277 273 281 281 282 288 287 280 282 279 280 278 278 277 276
Wind_Speed
21 20 22 24 23 23 23 23 23 23 22 22 21 20 18 16 14 1 2 4 3 7 13 14 11 11 4 3 2 2 1 8 6 5 10 7 10 2 2 12 7 6 13 16 30
21 21 21 22 22 23 23 22 23 23 23 23 22 20 17 13 11 1 2 2 3 8 12 10 6 10 3 2 1 3 4 7 5 1 5 12 5 11 8 18 24 18 20 25 26
22 22 22 22 23 24 24 23 23 22 21 21 20 17 12 12 2 4 2 3 3 7 7 3 2 2 2 3 1 2 6 3 3 2 3 12 15 4 6 18 16 19 23 20 24
22 24 24 25 26 27 27 26 25 22 22 22 14 10 7 8 5 4 2 4 5 5 2 3 2 2 3 4 3 4 7 8 4 2 6 12 11 9 14 25 17 21 23 24 21
22 25 26 26 27 28 29 28 24 24 25 17 10 6 4 2 6 7 0 7 5 5 2 2 2 3 2 3 3 6 5 8 9 13 9 8 15 19 23 23 22 22 20 22 20
24 25 26 27 28 30 31 30 25 30 21 11 6 6 2 2 6 5 3 8 10 5 3 3 4 4 3 3 4 2 7 14 14 20 14 12 17 13 20 24 24 18 18 18 19
24 25 26 29 32 33 35 30 26 26 13 8 9 8 3 8 5 6 9 10 11 5 3 5 4 3 1 4 3 4 7 13 20 15 8 2 13 17 27 26 18 19 21 22 24
24 26 27 30 33 36 34 33 33 17 10 8 1 6 5 4 7 8 9 12 5 5 7 5 5 3 3 2 3 3 2 6 16 2 4 9 21 26 23 19 20 24 22 20 24
24 25 26 27 31 35 35 35 25 11 7 1 2 2 6 2 4 5 9 5 9 1 1 3 4 3 2 2 3 4 6 9 15 8 6 8 15 21 26 14 21 26 25 22 24
24 24 25 26 29 28 37 29 17 3 7 2 2 1 4 2 3 12 4 3 2 1 2 2 2 2 1 3 7 8 6 11 15 7 7 20 28 28 30 17 23 23 21 20 20
24 24 26 28 31 21 30 8 9 5 8 4 3 5 5 8 11 4 6 2 2 2 2 1 2 7 14 14 16 12 16 21 24 21 17 24 24 30 22 16 21 11 6 9 11
25 26 26 28 30 16 18 6 4 6 10 7 8 6 12 4 4 5 2 2 2 4 3 3 11 14 4 10 13 15 20 24 23 18 10 19 28 26 23 15 6 2 5 9 13
24 25 26 27 25 18 11 4 13 3 4 6 4 4 2 6 4 4 6 1 5 3 6 7 8 4 9 14 14 16 17 19 20 20 13 19 18 17 5 5 2 1 5 8 12
25 26 26 27 10 21 6 13 9 5 4 4 3 3 3 2 5 4 3 6 3 7 5 7 5 6 6 9 10 15 8 14 14 13 8 5 11 31 8 5 3 9 10 13 16
26 26 25 22 18 11 9 13 1 0 5 1 2 0 1 3 5 1 2 2 7 6 5 12 3 5 7 9 4 9 7 11 16 16 12 6 6 5 4 4 5 10 15 14 15
27 28 27 18 16 11 10 8 2 5 6 5 2 2 4 3 2 5 1 3 2 2 4 18 1 4 7 3 4 6 5 12 4 2 0 5 8 13 3 2 6 11 13 16 16
31 33 33 19 8 10 8 2 4 4 3 4 3 2 1 5 3 3 4 5 3 3 4 5 4 3 5 4 5 7 6 4 5 3 5 4 8 13 2 2 4 11 14 14 15
29 29 26 19 13 6 0 5 3 4 6 4 4 3 5 3 2 3 2 4 1 4 2 0 9 3 3 5 5 2 6 2 6 3 15 10 6 5 5 3 9 11 15 15 16
28 24 15 5 4 6 4 2 7 5 1 5 11 2 3 4 4 2 4 5 5 8 6 4 7 4 4 3 7 4 4 5 5 1 3 3 7 5 7 12 15 15 17 17 17
24 7 5 3 6 3 2 7 5 3 3 3 3 4 7 14 3 2 3 4 4 10 4 3 6 3 1 3 2 5 1 4 1 5 6 5 6 5 5 11 14 13 14 15 16
12 5 1 6 6 1 3 6 5 5 1 3 9 14 9 23 5 3 5 4 5 2 7 2 4 6 3 3 6 3 2 4 4 2 3 5 5 5 4 7 11 13 14 14 15
5 3 4 10 1 1 2 4 4 6 7 9 3 6 20 9 5 10 12 8 5 5 4 6 1 4 10 4 3 4 6 4 2 4 5 7 15 5 5 5 7 12 13 14 14
1 3 5 3 3 3 4 5 10 16 6 3 5 19 13 4 13 8 9 5 8 8 4 5 3 3 9 3 2 2 4 4 2 5 12 7 7 4 4 4 7 11 13 13 15
3 4 2 1 1 3 10 18 2 2 4 14 11 11 22 22 11 6 14 9 6 8 16 9 5 8 11 15 1 6 9 7 5 5 5 11 20 20 10 9 10 11 12 12 12
1 3 3 4 4 5 14 14 20 15 10 8 23 14 16 18 19 15 11 16 8 10 7 4 8 7 12 16 5 10 15 17 11 14 7 17 5 16 10 5 7 9 10 12 14
1 2 2 9 12 8 12 10 19 11 15 20 17 18 20 18 18 22 17 13 12 2 4 4 14 4 4 7 6 6 16 12 11 12 13 15 16 2 2 3 7 9 10 11 12
3 6 3 4 5 8 8 7 23 19 8 11 21 19 12 17 17 19 19 20 17 18 12 6 4 4 4 1 5 8 7 5 3 3 5 3 5 2 3 3 4 7 8 8 10
Wind_Direction
358 359 359 358 355 353 351 346 343 339 335 333 330 332 332 334 336 136 80 10 62 11 347 346 354 347 353 360 360 102 245 255 252 224 261 27 2 351 313 280 260 269 279 293 307
0 1 358 355 352 350 347 342 340 337 335 331 328 325 322 324 329 262 34 45 11 359 354 358 357 347 20 357 345 167 218 236 206 26 303 309 316 315 306 292 282 289 280 288 301
1 356 354 351 350 348 344 343 337 332 329 326 323 322 321 315 329 205 105 41 1 347 356 352 354 22 18 345 250 237 236 331 298 287 298 300 296 225 280 282 279 284 291 289 288
357 356 354 350 349 347 345 339 335 333 330 328 326 340 311 319 324 136 112 9 337 333 352 37 34 108 191 222 257 271 259 248 237 246 292 283 295 285 261 266 278 272 273 282 280
354 354 352 350 348 345 341 338 337 333 327 323 319 320 347 28 248 176 135 10 335 324 226 168 145 173 226 218 254 224 257 261 268 283 259 269 290 285 286 281 274 268 277 282 282
352 351 351 349 347 343 339 336 332 332 327 323 336 315 43 280 155 186 242 318 335 284 229 210 196 199 232 221 191 266 310 307 309 298 296 297 292 323 280 278 279 298 289 278 273
351 348 348 347 346 343 338 336 331 329 334 329 317 236 139 229 198 238 278 311 317 258 218 227 211 169 124 307 278 308 312 308 281 273 282 123 288 265 266 272 288 283 280 279 278
349 349 348 345 343 342 337 334 328 327 326 330 65 170 235 222 230 279 296 310 304 296 246 283 210 165 176 277 315 276 221 270 270 46 233 166 269 266 268 274 284 279 274 273 269
348 350 350 344 341 338 336 334 327 329 338 168 177 135 269 247 249 289 290 287 303 255 278 172 145 182 116 159 322 222 254 235 281 192 241 191 263 259 264 286 280 274 275 275 275
345 346 346 344 342 337 339 337 332 337 13 184 92 355 272 213 272 297 281 274 255 334 97 138 85 173 145 136 252 258 226 257 259 262 306 279 271 272 272 273 266 271 276 280 283
344 344 342 344 343 337 347 353 12 350 15 245 255 281 283 305 292 244 302 206 155 122 208 47 269 229 234 214 248 270 270 268 273 278 270 270 271 268 279 276 274 295 337 325 313
346 345 342 341 340 341 3 62 126 277 304 251 248 257 273 248 298 278 226 217 194 240 117 358 246 253 260 254 246 247 260 269 277 277 268 284 277 279 280 268 179 271 310 311 311
343 342 341 337 335 344 6 40 340 228 278 295 221 235 232 163 262 263 158 173 219 242 201 189 245 304 264 270 265 257 258 272 271 295 289 274 282 275 262 166 157 291 281 299 306
342 339 339 334 337 337 338 338 348 136 40 271 267 290 143 167 271 222 214 190 235 227 218 239 279 258 268 259 274 277 246 262 284 305 285 65 295 292 292 204 358 344 327 325 322
338 335 334 330 314 322 309 329 47 313 350 232 239 90 92 237 320 215 176 140 238 226 99 253 228 234 255 252 223 242 329 287 284 281 296 256 227 272 126 232 329 321 322 317 311
340 337 336 322 314 300 309 331 300 36 264 317 314 353 326 203 254 309 12 38 24 321 284 259 300 219 223 298 250 335 343 314 37 71 286 241 195 288 279 283 303 315 316 315 314
336 331 329 314 289 303 309 358 9 135 329 288 315 21 338 270 293 44 351 308 211 325 313 310 237 268 204 11 9 50 41 325 347 354 230 284 293 263 168 252 280 314 321 321 318
328 329 323 310 283 287 298 47 151 250 232 27 354 240 242 312 233 319 299 285 151 96 25 247 320 209 159 187 211 207 158 207 288 278 295 283 239 266 187 183 344 336 324 325 328
334 326 302 300 299 177 78 88 216 219 309 337 324 314 274 265 212 348 221 241 237 177 196 200 266 257 267 312 131 266 202 205 270 109 358 264 285 265 234 346 345 333 331 334 326
332 303 290 288 158 125 90 244 238 248 18 68 225 229 267 317 289 193 215 202 252 194 204 218 288 247 67 332 265 174 277 336 276 304 304 280 279 251 311 329 326 324 329 323 323
325 333 274 146 145 95 217 232 282 295 349 230 272 287 278 306 255 244 245 261 221 166 191 196 208 277 41 228 205 348 312 243 254 155 258 303 265 207 239 291 313 325 334 328 329
315 305 148 148 259 227 216 204 253 280 275 274 267 249 288 282 226 278 270 218 178 177 219 198 195 253 221 256 227 190 216 230 269 308 257 267 283 182 217 273 330 331 331 332 334
279 257 165 151 269 274 262 260 288 287 255 271 277 295 278 239 294 247 280 280 232 197 235 185 199 333 328 357 71 120 225 237 334 273 263 269 269 195 263 2 356 335 333 335 339
324 311 331 191 320 294 304 307 279 253 268 294 297 317 297 293 293 294 284 288 238 230 240 185 180 184 254 263 125 296 275 243 265 258 265 246 279 294 332 349 345 335 336 336 342
290 275 176 291 299 280 292 291 302 309 282 328 308 289 304 318 308 301 298 316 252 243 258 266 256 211 242 261 260 273 273 277 246 235 241 283 255 294 321 329 330 329 336 349 355
234 2 344 283 283 271 293 293 298 305 321 307 294 332 315 304 298 301 306 301 272 279 201 217 258 233 271 253 213 274 266 267 246 257 248 267 281 318 296 328 346 348 346 358 356
241 254 244 274 289 300 287 309 307 312 307 315 317 308 315 306 302 286 278 268 255 255 251 225 217 164 252 337 340 305 249 209 246 204 172 260 248 24 321 335 340 332 343 353 357